Location: Tehachapi Municipal Airport
(35.1300°N, 118.4400°W)
Time: 01:51:46
(UTC-07:00)

BREEZE M DEB (TANK) - Visible Passes

Search period start: 24 June 2017 00:00
Search period end: 04 July 2017 00:00
Orbit: 303 x 11970 km, 49.5° (Epoch: 23 June)

Date Brightness Start Highest point End Pass type
(mag) Time Alt. Az. Time Alt. Az. Time Alt. Az.
24 Jun 6.6 21:05:30 10° NW 21:36:15 27° W 21:46:49 10° SSW visible
25 Jun 6.4 20:05:11 10° NW 20:49:25 42° WSW 21:00:48 10° S visible
29 Jun 7.0 21:09:38 10° NW 21:32:21 19° W 21:42:41 10° SW visible
30 Jun 6.8 20:07:53 10° NW 20:46:04 31° W 20:58:06 10° SSW visible
02 Jul 9.2 05:17:20 10° E 05:36:34 12° ENE 05:57:59 10° ENE visible
